Location: Launay
(47.2429°N, 1.5727°E)
Time: 11:54:58
(UTC+00:00)

Cosmos 1535 Rocket - Visible Passes

Search period start: 11 February 2026 00:00
Search period end: 21 February 2026 00:00
Orbit: 948 x 1003 km, 83.0° (Epoch: 10 February)

Date Brightness Start Highest point End Pass type
(mag) Time Alt. Az. Time Alt. Az. Time Alt. Az.
11 Feb 5.9 04:33:35 10° SSE 04:39:26 39° E 04:45:17 10° NNE visible
11 Feb 5.0 06:18:54 10° SW 06:24:48 39° WNW 06:30:45 10° N visible
12 Feb 7.5 03:18:49 10° E 03:20:31 11° ENE 03:22:13 10° ENE visible
12 Feb 4.9 04:58:19 10° S 05:04:38 67° E 05:10:58 10° NNE visible
12 Feb 7.1 17:37:17 10° NNW 17:42:00 23° W 17:46:40 10° SW visible
13 Feb 6.9 03:40:53 10° SE 03:45:20 20° E 03:49:47 10° NE visible
13 Feb 4.5 05:23:38 10° SSW 05:30:01 75° W 05:36:24 10° N visible
13 Feb 7.5 18:04:15 10° NW 18:06:51 13° WNW 18:09:27 10° W visible
14 Feb 6.1 04:04:42 10° SSE 04:10:20 34° E 04:15:58 10° NNE visible
14 Feb 4.8 05:49:29 10° SW 05:55:33 44° WNW 06:01:38 10° N visible
15 Feb 5.1 04:29:15 10° S 04:35:29 58° E 04:41:43 10° NNE visible
15 Feb 5.4 06:15:58 10° SW 06:21:17 27° WNW 06:26:36 10° N visible
16 Feb 7.0 03:12:19 10° ESE 03:16:17 17° E 03:20:14 10° NE visible
16 Feb 4.5 04:54:25 10° S 05:00:49 85° W 05:07:13 10° N visible
17 Feb 6.2 03:35:51 10° SE 03:41:14 30° E 03:46:36 10° NNE visible
17 Feb 4.7 05:20:08 10° SSW 05:26:19 51° WNW 05:32:30 10° N visible
18 Feb 5.3 04:00:14 10° SSE 04:06:21 50° E 04:12:26 10° NNE visible
18 Feb 5.2 05:46:26 10° SW 05:51:59 31° WNW 05:57:33 10° N visible
19 Feb 7.1 02:43:54 10° ESE 02:47:15 15° ENE 02:50:35 10° NE visible
19 Feb 4.5 04:25:15 10° S 04:31:37 85° E 04:38:00 10° N visible
19 Feb 5.8 06:13:31 10° WSW 06:17:51 19° WNW 06:22:12 10° NNW visible
20 Feb 6.4 03:07:04 10° SE 03:12:09 26° E 03:17:12 10° NNE visible
20 Feb 4.5 04:51:12 12° SSW 04:57:05 58° WNW 05:03:20 10° N visible
